This is the latest recevied weather packets stored in our database for station/object JE0GNV-13. If no packets are shown the sender has not sent any weather packets the latest 10 day(s).
| Time | Temp. | Humidity | Pressure | Rain* | Wind** | Luminosity | Snow |
|---|---|---|---|---|---|---|---|
| 1777911001 | 7.22° C | 69% | 1011.3 hPa | 0 mm | - | - | - |
| 1777910401 | 7.22° C | 70% | 1010.8 hPa | 0 mm | - | - | - |
| 1777909802 | 7.22° C | 70% | 1010.6 hPa | 0 mm | - | - | - |
| 1777909201 | 7.78° C | 70% | 1010.6 hPa | 0 mm | - | - | - |
| 1777908600 | 7.78° C | 70% | 1010 hPa | 0 mm | - | - | - |
| 1777908002 | 7.78° C | 70% | 1010.1 hPa | 0 mm | - | - | - |
| 1777907401 | 7.78° C | 70% | 1010.1 hPa | 0 mm | - | - | - |
| 1777906802 | 7.78° C | 70% | 1009.8 hPa | 0 mm | - | - | - |
| 1777906201 | 7.78° C | 69% | 1009.5 hPa | 0 mm | - | - | - |
| 1777905600 | 8.33° C | 66% | 1009.4 hPa | 0 mm | - | - | - |
| 1777905001 | 8.33° C | 64% | 1009.2 hPa | 0 mm | - | - | - |
| 1777904400 | 8.33° C | 60% | 1009.2 hPa | 0 mm | - | - | - |
| 1777903801 | 8.89° C | 60% | 1009.2 hPa | 0 mm | - | - | - |
| 1777903201 | 8.89° C | 60% | 1008.8 hPa | 0 mm | - | - | - |
| 1777902601 | 8.89° C | 57% | 1008.8 hPa | 0 mm | - | - | - |
| 1777902001 | 8.89° C | 57% | 1008.8 hPa | 0 mm | - | - | - |
| 1777901400 | 8.89° C | 62% | 1008.5 hPa | 0 mm | - | - | - |
| 1777900801 | 9.44° C | 59% | 1008.7 hPa | 0 mm | - | - | - |
| 1777900201 | 9.44° C | 60% | 1008.7 hPa | 0 mm | - | - | - |
| 1777899602 | 9.44° C | 58% | 1008.3 hPa | 0 mm | - | - | - |
| 1777899002 | 10° C | 58% | 1008.1 hPa | 0 mm | - | - | - |
| 1777898402 | 10° C | 56% | 1008.1 hPa | 0 mm | - | - | - |
| 1777897802 | 10° C | 57% | 1007.7 hPa | 0 mm | - | - | - |
| 1777897202 | 10.56° C | 57% | 1007.5 hPa | 0 mm | - | - | - |
| 1777896601 | 10.56° C | 55% | 1007.5 hPa | 0 mm | - | - | - |
* Rain latest hour (hover to see other rain measurements)
** Current wind speed in m/s (hover to see current wind gust speed)